Weather History for Lorain / Elyria, OH

Change the Weather History Date:

Wednesday, August 13, 2014

  Actual Average (KCLE) Record (KCLE)
Temperature  
Mean Temperature 69 °F 72 °F  
Max Temperature 75 °F 81 °F 95 °F (2002)
Min Temperature 63 °F 64 °F 47 °F (1967)
Degree Days  
Heating Degree Days 0 0  
Month to date heating degree days 0  
Since 1 June heating degree days 46  
Since 1 July heating degree days 4  
Cooling Degree Days 4 8  
Month to date cooling degree days 104  
Year to date cooling degree days 596  
Since 1 June cooling degree days 537  
Growing Degree Days 19 (Base 50)    
Moisture  
Dew Point 58 °F    
Average Humidity 73    
Maximum Humidity 88    
Minimum Humidity 44    
Precipitation  
Precipitation 0.21 in 0.12 in 2.26 in (1984)
Month to date precipitation 1.51  
Year to date precipitation 23.54  
Snow  
Snow 0.00 in 0.00 in - ()
Month to date snowfall 0.0  
Since 1 June snowfall 0.0  
Since 1 July snowfall 0.0  
Snow Depth -    
Sea Level Pressure  
Sea Level Pressure 29.90 in    
Wind  
Wind Speed 9 mph (NW)    
Max Wind Speed 17 mph    
Max Gust Speed 26 mph    
Visibility 8 miles    
Events Rain    
T = Trace of Precipitation, MM = Missing Value Source: NWS Daily Summary

Daily Weather History Graph

Daily Weather History Graph

Search for Another Location

Airport:

Trip Planner

Search our weather history database for the weather conditions in past years. The results will help you decide how hot, cold, wet, or windy it might be!

Date:

Astronomy

Aug. 13, 2014 Rise Set
Actual Time 6:35 AM EDT 8:30 PM EDT
Civil Twilight 6:05 AM EDT 9:00 PM EDT
Nautical Twilight 5:29 AM EDT 9:36 PM EDT
Astronomical Twilight 4:49 AM EDT 10:16 PM EDT
Moon 10:11 PM EDT (8/13) 10:05 AM EDT (8/13)
Length of Visible Light 14h 54m
Length of Day
13h 54m
Waning Gibbous, 88% of the Moon is Illuminated
Aug 13
Waning Gibbous
Aug 17
Last Quarter
Aug 25
New
Sep 2
First Quarter
Sep 8
Full

Hourly Weather History & Observations

Time (EDT) Temp. Dew Point Humidity Pressure Visibility Wind Dir Wind Speed Gust Speed Precip Events Conditions
12:15 AM 66.9 °F 61.0 °F 81% 29.84 in 8.0 mi West 9.2 mph - N/A   Mostly Cloudy
12:23 AM 66.9 °F 62.1 °F 84% 29.84 in 6.0 mi NW 16.1 mph 20.7 mph 0.01 in Rain Light Rain
12:28 AM 66.9 °F 62.1 °F 84% 29.85 in 3.0 mi NNW 11.5 mph 20.7 mph 0.07 in Rain Heavy Rain
12:31 AM 66.9 °F 62.1 °F 84% 29.85 in 2.5 mi NNW 12.7 mph 20.7 mph 0.09 in Rain Heavy Rain
12:41 AM 66.9 °F 62.1 °F 84% 29.85 in 6.0 mi WNW 4.6 mph - 0.11 in Rain Light Rain
12:51 AM 66.2 °F 62.6 °F 88% 29.85 in 4.0 mi West 3.5 mph - 0.13 in Rain Rain
12:53 AM 66.9 °F 62.1 °F 84% 29.83 in 4.0 mi Variable 3.5 mph - 0.13 in Rain Light Rain
1:13 AM 66.9 °F 62.1 °F 84% 29.85 in 5.0 mi West 4.6 mph - 0.02 in Rain Light Rain
1:20 AM 66.9 °F 62.1 °F 84% 29.85 in 4.0 mi West 5.8 mph - 0.04 in Rain Light Rain
1:34 AM 66.9 °F 62.1 °F 84% 29.85 in 5.0 mi WNW 6.9 mph - 0.05 in Rain Light Rain
1:53 AM 66.9 °F 63.0 °F 87% 29.84 in 5.0 mi NW 4.6 mph - 0.07 in Rain Light Rain
2:12 AM 66.9 °F 62.1 °F 84% 29.86 in 10.0 mi NW 5.8 mph - 0.00 in   Overcast
2:53 AM 66.9 °F 61.0 °F 81% 29.85 in 10.0 mi NW 6.9 mph - 0.01 in   Overcast
3:34 AM 66.0 °F 61.0 °F 84% 29.87 in 10.0 mi West 8.1 mph - N/A   Overcast
3:53 AM 64.9 °F 60.1 °F 84% 29.86 in 10.0 mi West 8.1 mph - N/A   Overcast
4:09 AM 64.9 °F 59.0 °F 81% 29.87 in 10.0 mi West 6.9 mph - N/A   Overcast
4:20 AM 64.0 °F 59.0 °F 84% 29.87 in 10.0 mi West 10.4 mph - N/A   Overcast
4:53 AM 64.0 °F 59.0 °F 84% 29.86 in 10.0 mi WNW 10.4 mph - N/A   Overcast
5:25 AM 64.0 °F 57.9 °F 80% 29.88 in 9.0 mi WNW 8.1 mph - N/A   Overcast
5:53 AM 64.0 °F 57.9 °F 80% 29.87 in 8.0 mi West 10.4 mph - N/A   Overcast
6:06 AM 64.0 °F 57.9 °F 80% 29.88 in 7.0 mi West 6.9 mph - N/A   Overcast
6:23 AM 63.0 °F 57.9 °F 84% 29.89 in 7.0 mi West 9.2 mph - N/A   Overcast
6:53 AM 63.0 °F 57.0 °F 81% 29.89 in 8.0 mi West 10.4 mph - N/A   Overcast
9:53 AM 66.9 °F 55.9 °F 68% 29.94 in 10.0 mi NNW 12.7 mph 18.4 mph N/A   Mostly Cloudy
11:11 AM 69.1 °F 55.9 °F 63% 29.97 in 10.0 mi NW 15.0 mph 26.5 mph N/A   Scattered Clouds
11:53 AM 70.0 °F 55.0 °F 59% 29.96 in 10.0 mi NNW 15.0 mph 24.2 mph N/A   Clear
12:21 PM 71.1 °F 55.0 °F 57% 29.98 in 10.0 mi NW 15.0 mph 26.5 mph N/A   Partly Cloudy
12:53 PM 72.0 °F 54.0 °F 53% 29.97 in 10.0 mi NW 16.1 mph 25.3 mph N/A   Partly Cloudy
1:53 PM 73.0 °F 53.1 °F 49% 29.96 in 10.0 mi WNW 16.1 mph 21.9 mph N/A   Partly Cloudy
2:53 PM 73.9 °F 52.0 °F 46% 29.95 in 10.0 mi NW 17.3 mph 23.0 mph N/A   Clear
3:53 PM 75.0 °F 52.0 °F 44% 29.95 in 10.0 mi NW 13.8 mph 23.0 mph N/A   Clear
4:53 PM 75.0 °F 53.1 °F 46% 29.96 in 10.0 mi NW 15.0 mph 26.5 mph N/A   Clear
5:53 PM 75.0 °F 54.0 °F 48% 29.96 in 10.0 mi NNW 8.1 mph 20.7 mph N/A   Clear
6:53 PM 75.0 °F 54.0 °F 48% 29.96 in 10.0 mi NW 10.4 mph - N/A   Clear
7:53 PM 72.0 °F 55.0 °F 55% 29.96 in 10.0 mi NNW 5.8 mph - N/A   Clear
8:53 PM 66.9 °F 57.0 °F 70% 29.96 in 10.0 mi ENE 3.5 mph - N/A   Clear
9:53 PM 66.9 °F 55.9 °F 68% 29.96 in 10.0 mi Calm Calm - N/A   Mostly Cloudy
10:53 PM 63.0 °F 55.9 °F 78% 29.96 in 10.0 mi Calm Calm - N/A   Partly Cloudy